Flag for Germany Weather past 2 weeks in Eisenach, Thuringia, Germany

Now
39 °F

Sprinkles. Overcast.


Feels Like: 34 °F
Forecast: 36 / 43 °F
Wind: 8 mph from West

Location: Meiningen

Current Time: Dec 20, 2014 at 4:34:50 PM

Latest Report: Dec 20, 2014 at 3:00 PM


Visibility: 14 mi

Pressure: 30.06 "Hg

Humidity: 73%

Dew point: 31 °F

Location of EisenachLocation

Historic Weather in Eisenach — Graph

°F

Eisenach temperature yesterday

Maximum temperature yesterday: 51 °F (at 12:00 AM)
Minimum temperature yesterday: 38 °F (at 11:00 PM)
Average temperature yesterday: 47 °F

Past Weeks' High & Low Weather Summary

 TemperatureHumidityPressure
High52 °F (Dec 18, 11:00 PM)100% (Dec 5, 3:00 PM)30.47 "Hg (Dec 5, 3:00 PM)
Low24 °F (Dec 9, 1:00 AM)70% (Dec 8, 3:00 PM)29.60 "Hg (Dec 12, 7:00 PM)
Average37 °F92%30.04 "Hg
* Reported Dec 5 3:00 PM — Dec 20 3:00 PM, Eisenach, Weather by CustomWeather, © 2014

Note: Actual official high and low records may vary slightly from our data, if they occured in-between our weather recording intervals... More about our weather records

Advertising

Eisenach weather history for previous 24 hours

 ConditionsComfort  
Time TempWeatherWind HumidityBarometerVisibility
3:00 PM
Dec 20
39 °FSprinkles. Overcast.8 mph73%30.06 "Hg14 mi
2:00 PM39 °FOvercast.7 mph75%30.08 "Hg19 mi
1:00 PM39 °FOvercast.7 mph75%30.11 "Hg16 mi
12:00 PM38 °FOvercast.7 mph77%30.13 "Hg16 mi
11:00 AM38 °FOvercast.7 mph77%30.16 "Hg19 mi
9:00 AM38 °FPartly sunny.8 mph75%30.18 "Hg25 mi
8:00 AM38 °FOvercast.7 mph76%30.18 "Hg28 mi
7:00 AM38 °FOvercast.6 mph74%30.18 "Hg31 mi
6:00 AM39 °FPassing clouds.5 mph76%30.17 "Hg31 mi
5:00 AM39 °FOvercast.5 mph75%30.16 "Hg40 mi
3:00 AM39 °FOvercast.5 mph76%30.16 "Hg31 mi
2:00 AM39 °FOvercast.7 mph73%30.14 "Hg37 mi
1:00 AM38 °FPassing clouds.5 mph75%30.14 "Hg34 mi
12:00 AM38 °FClear.6 mph75%30.12 "Hg37 mi
11:00 PM
Dec 19
38 °FClear.6 mph75%30.11 "Hg37 mi
9:00 PM43 °FOvercast.6 mph79%30.01 "Hg40 mi
8:00 PM45 °FOvercast.8 mph73%29.98 "Hg43 mi
7:00 PM47 °FLight rain. Overcast.6 mph83%29.94 "Hg28 mi
6:00 PM47 °FLight rain. Low clouds.8 mph83%29.93 "Hg5 mi
5:00 PM47 °FRain. Low clouds.6 mph94%29.89 "Hg5 mi
Weather by CustomWeather, © 2014

See weather overviewHow to use our weather pages